PSLV R/B, 62257

Orbit data source: Space-Track

PSLV R/B, 62257 is space debris in HEO originally from a launch on Thu, 05 Dec 2024 UTC launched from the Sirharikota (SRI). Debris objects in space refer to the collection of defunct objects orbiting the Earth. Examples of debris include non-operational satellites, rocket bodies, and fragments generated from explosions, collisions, or faulty payload assembly.

Loading next visibility...
Identifier
62257, 2024-233B
Orbit
HEO
Country
Flag of ININ / IND
Related business
Manufacturer
VSSC/LPSC
Mission
Spacecraft
Bus & Motor
PS-4DL, Unknown motor
Mass
920 kg wet, 920 kg dry
Launch date (UTC)
2024-12-05 (2 years ago)
Launch vehicle
Unknown
Launch site
Sirharikota (SRI)
Object type
Payload
Rocket body
Debris
Shape & HBR
Cyl + Cyl + 2 Nozzle, 1.5 m
Radar Cross Section
3.727 m², Large (>1 m²)

Expand to show TLE details & history
Last TLE update: 4 days ago

TLE from 4 days ago
0 PSLV R/B
1 62257U 24233B   26167.54534857 -.00000212  00000-0  34869-1 0  9996
2 62257  59.8155  98.5130 8019318 205.0868  69.8055  1.20448187  6725
Epoch: 2026-06-16T13:05Z
TLE epoch observation values (Epoch: 2026-06-16T13:05:18.116Z)
Latitude
0.00004°
Longitude
-2.53987°
Altitude
42,443.67 km
Speed
2.376 km/s
True Right ascension
06h 34m 24s
True Declination
0° 00' 00"
Sunlit
Object was in daylight at epoch
Visualization orbit readout
Latitude
Unknown
Longitude
Unknown
Altitude
Unknown
Speed
Unknown
Apparent Right ascension
Unknown
Apparent Declination
Unknown
Sunlit
N/A
Visualization observer readout
Local Sidereal Time
08:43:04
Azimuth
Unknown
Elevation
Unknown
Doppler factor
Unknown
Orbital elements
Apogee altitude
60,857.444 km
Perigee altitude
1,012.393 km
Semi-major axis
37,313.055 km
Eccentricity
0.80193
Inclination
59.8155°
RAAN
98.513°
Arg. of periapsis
205.0868°
True anomaly
154.93232°
Mean anomaly
69.8055°
Eccentric anomaly
112.31257°
Mean motion
0.30113 °/min
Orbital period
1,195.5 mins
BSTAR
0.034869
Loading maneuver chart data...
Computing Atmospheric mass density...
Loading historical data...
Loading historical data...
Loading historical data...
Loading historical data...
Loading historical data...
Loading historical data...
Loading historical data...
Other satellites on launch #233 in the year 2024 (2024-12-05 UTC)

Documentation

Showing up to 5 results
|